When you browse on this site, cookies collect data to enhance your experience and personalize the content and advertising you see.
Visit our Privacy Policy to learn more. By continuing to use the site, you agree to this use of cookies and data.
  • în România
  • Lista ţărilor
  • Pe 7 zile
  • Temperatura apei
  • Hartă satelitară
  • Meteo pe hartă
  • Widget-uri
  • user-avatar
    Intrare

    Meteo pe oră la Lyszkowice

    Astăzi, 15 Februarie, Vineri

    Timp Temperatura Precipitaţii Vânt Presiune Umiditate
    00:00 +4°C° 0 mm 2 m/s 750 mmHg 95%
    01:00 +5°C° 0 mm 1 m/s 750 mmHg 95%
    02:00 +5°C° 0 mm 1 m/s 750 mmHg 95%
    03:00 +5°C° 0 mm 1 m/s 750 mmHg 95%
    04:00 +4°C° 0 mm 2 m/s 749 mmHg 95%
    05:00 +3°C° 0 mm 2 m/s 750 mmHg 95%
    06:00 +4°C° 0 mm 1 m/s 750 mmHg 95%
    07:00 +3°C° 0 mm 2 m/s 750 mmHg 95%
    08:00 +4°C° 0 mm 2 m/s 750 mmHg 91%
    09:00 +4°C° 0 mm 2 m/s 750 mmHg 88%
    10:00 +5°C° 0 mm 2 m/s 750 mmHg 84%
    11:00 +6°C° 0 mm 2 m/s 750 mmHg 78%
    12:00 +7°C° 0 mm 2 m/s 749 mmHg 72%
    13:00 +8°C° 0 mm 3 m/s 749 mmHg 66%
    14:00 +8°C° 0 mm 3 m/s 749 mmHg 67%
    15:00 +7°C° 0 mm 3 m/s 749 mmHg 69%
    16:00 +7°C° 0 mm 3 m/s 749 mmHg 70%
    17:00 +5°C° 0 mm 3 m/s 749 mmHg 75%
    18:00 +4°C° 0 mm 3 m/s 749 mmHg 80%
    19:00 +3°C° 0 mm 3 m/s 749 mmHg 84%
    20:00 +4°C° 0 mm 2 m/s 749 mmHg 85%
    21:00 +3°C° 0 mm 2 m/s 748 mmHg 86%
    22:00 +3°C° 0 mm 2 m/s 748 mmHg 87%
    23:00 +2°C° 0 mm 2 m/s 748 mmHg 87%

    Mâine, 16 Februarie, Sâmbătă

    Timp Temperatura Precipitaţii Vânt Presiune Umiditate
    00:00 +2°C° 0 mm 2 m/s 748 mmHg 88%
    01:00 +2°C° 0 mm 2 m/s 748 mmHg 88%
    02:00 +2°C° 0 mm 2 m/s 748 mmHg 88%
    03:00 +1°C° 0 mm 2 m/s 748 mmHg 88%
    04:00 +1°C° 0 mm 2 m/s 748 mmHg 88%
    05:00 +1°C° 0 mm 2 m/s 748 mmHg 88%
    06:00 +1°C° 0 mm 2 m/s 748 mmHg 87%
    07:00 +1°C° 0 mm 2 m/s 748 mmHg 87%
    08:00 +3°C° 0 mm 2 m/s 748 mmHg 80%
    09:00 +4°C° 0 mm 2 m/s 747 mmHg 73%
    10:00 +6°C° 0 mm 2 m/s 747 mmHg 66%
    11:00 +7°C° 0 mm 2 m/s 747 mmHg 61%
    12:00 +9°C° 0 mm 2 m/s 747 mmHg 57%
    13:00 +10°C° 0 mm 2 m/s 747 mmHg 52%
    14:00 +10°C° 0 mm 2 m/s 747 mmHg 54%
    15:00 +9°C° 0 mm 2 m/s 746 mmHg 56%
    16:00 +10°C° 0 mm 1 m/s 746 mmHg 58%
    17:00 +8°C° 0 mm 2 m/s 746 mmHg 62%
    18:00 +7°C° 0 mm 2 m/s 746 mmHg 66%
    19:00 +6°C° 0 mm 2 m/s 746 mmHg 71%
    20:00 +5°C° 0 mm 2 m/s 746 mmHg 73%
    21:00 +5°C° 0 mm 2 m/s 746 mmHg 76%
    22:00 +3°C° 0 mm 3 m/s 746 mmHg 79%
    23:00 +3°C° 0 mm 3 m/s 746 mmHg 77%

    Poimâine, 17 Februarie, Duminică

    Timp Temperatura Precipitaţii Vânt Presiune Umiditate
    00:00 +3°C° 0 mm 3 m/s 746 mmHg 75%
    01:00 +2°C° 0 mm 3 m/s 745 mmHg 72%
    02:00 +2°C° 0 mm 3 m/s 745 mmHg 71%
    03:00 +2°C° 0 mm 3 m/s 745 mmHg 70%
    04:00 +2°C° 0 mm 3 m/s 745 mmHg 69%
    05:00 +1°C° 0 mm 3 m/s 745 mmHg 69%
    06:00 +1°C° 0 mm 3 m/s 745 mmHg 69%
    07:00 +1°C° 0 mm 3 m/s 745 mmHg 69%
    08:00 +3°C° 0 mm 3 m/s 745 mmHg 63%
    09:00 +4°C° 0 mm 3 m/s 745 mmHg 57%
    10:00 +7°C° 0 mm 3 m/s 745 mmHg 52%
    11:00 +8°C° 0 mm 3 m/s 745 mmHg 49%
    12:00 +10°C° 0 mm 3 m/s 745 mmHg 46%
    13:00 +11°C° 0 mm 3 m/s 744 mmHg 42%
    14:00 +10°C° 0 mm 3 m/s 744 mmHg 45%
    15:00 +10°C° 0 mm 2 m/s 744 mmHg 48%
    16:00 +9°C° 0 mm 2 m/s 744 mmHg 51%
    17:00 +8°C° 0 mm 2 m/s 744 mmHg 56%
    18:00 +7°C° 0 mm 2 m/s 744 mmHg 60%
    19:00 +7°C° 0 mm 1 m/s 744 mmHg 65%
    20:00 +6°C° 0 mm 1 m/s 744 mmHg 68%
    21:00 +6°C° 0 mm 1 m/s 744 mmHg 71%
    22:00 +5°C° 0 mm 1 m/s 744 mmHg 74%
    23:00 +5°C° 0 mm 1 m/s 744 mmHg 76%

    18 Februarie, Luni

    Timp Temperatura Precipitaţii Vânt Presiune Umiditate
    00:00 +4°C° 0 mm 1 m/s 744 mmHg 78%
    01:00 +4°C° 0 mm 1 m/s 744 mmHg 80%
    02:00 +4°C° 0 mm 1 m/s 744 mmHg 80%
    03:00 +3°C° 0 mm 1 m/s 743 mmHg 80%
    04:00 +3°C° 0 mm 1 m/s 743 mmHg 80%
    05:00 +3°C° 0 mm 1 m/s 743 mmHg 79%
    06:00 +2°C° 0 mm 0 m/s 743 mmHg 78%
    07:00 +2°C° 0 mm 0 m/s 743 mmHg 76%
    08:00 +3°C° 0 mm 0 m/s 744 mmHg 70%
    09:00 +4°C° 0 mm 0 m/s 744 mmHg 64%
    10:00 +7°C° 0 mm 1 m/s 744 mmHg 58%
    11:00 +8°C° 0 mm 1 m/s 744 mmHg 55%
    12:00 +9°C° 0 mm 1 m/s 743 mmHg 52%
    13:00 +10°C° 0 mm 1 m/s 743 mmHg 49%
    14:00 +10°C° 0 mm 1 m/s 743 mmHg 51%
    15:00 +9°C° 0 mm 2 m/s 743 mmHg 53%
    16:00 +8°C° 0 mm 2 m/s 742 mmHg 56%
    17:00 +7°C° 0 mm 2 m/s 742 mmHg 61%
    18:00 +6°C° 0 mm 2 m/s 743 mmHg 66%
    19:00 +5°C° 0 mm 2 m/s 743 mmHg 71%
    20:00 +4°C° 0 mm 2 m/s 742 mmHg 75%
    21:00 +5°C° 0 mm 1 m/s 742 mmHg 78%
    22:00 +4°C° 0 mm 1 m/s 742 mmHg 81%
    23:00 +4°C° 0 mm 1 m/s 742 mmHg 81%

    19 Februarie, Marţi

    Timp Temperatura Precipitaţii Vânt Presiune Umiditate
    00:00 +4°C° 0 mm 1 m/s 742 mmHg 81%
    01:00 +3°C° 0 mm 1 m/s 742 mmHg 81%
    02:00 +3°C° 0 mm 1 m/s 742 mmHg 79%
    03:00 +3°C° 0 mm 1 m/s 741 mmHg 78%
    04:00 +3°C° 0 mm 1 m/s 741 mmHg 76%
    05:00 +3°C° 0 mm 1 m/s 741 mmHg 74%
    06:00 +3°C° 0 mm 1 m/s 741 mmHg 71%
    07:00 +3°C° 0 mm 1 m/s 741 mmHg 69%
    08:00 +5°C° 0 mm 1 m/s 741 mmHg 62%
    09:00 +5°C° 0 mm 2 m/s 741 mmHg 55%
    10:00 +7°C° 0 mm 2 m/s 741 mmHg 49%
    11:00 +8°C° 0 mm 2 m/s 741 mmHg 47%
    12:00 +10°C° 0 mm 3 m/s 740 mmHg 45%
    13:00 +11°C° 0 mm 3 m/s 740 mmHg 44%
    14:00 +10°C° 0 mm 3 m/s 740 mmHg 47%
    15:00 +10°C° 0 mm 3 m/s 739 mmHg 51%
    16:00 +10°C° 0 mm 3 m/s 739 mmHg 54%
    17:00 +9°C° 0 mm 3 m/s 739 mmHg 61%
    18:00 +6°C° 0 mm 4 m/s 739 mmHg 67%
    19:00 +5°C° 0 mm 4 m/s 739 mmHg 73%
    20:00 +5°C° 0 mm 4 m/s 740 mmHg 74%
    21:00 +3°C° 0 mm 5 m/s 740 mmHg 75%
    22:00 +3°C° 0 mm 5 m/s 740 mmHg 76%
    23:00 +3°C° 0 mm 5 m/s 740 mmHg 75%

    20 Februarie, Miercuri

    Timp Temperatura Precipitaţii Vânt Presiune Umiditate
    00:00 +3°C° 0 mm 5 m/s 740 mmHg 75%
    01:00 +3°C° 0 mm 5 m/s 740 mmHg 75%
    02:00 +3°C° 0 mm 4 m/s 740 mmHg 80%
    03:00 +3°C° 0 mm 4 m/s 741 mmHg 84%
    04:00 +3°C° 0 mm 4 m/s 741 mmHg 89%
    05:00 +1°C° 0 mm 4 m/s 741 mmHg 90%
    06:00 +1°C° 0 mm 4 m/s 741 mmHg 91%
    07:00 +1°C° 0 mm 4 m/s 741 mmHg 92%
    08:00 +2°C° 0 mm 5 m/s 742 mmHg 84%
    09:00 +3°C° 0 mm 5 m/s 742 mmHg 77%
    10:00 +5°C° 0 mm 6 m/s 742 mmHg 70%
    11:00 +5°C° 0 mm 6 m/s 742 mmHg 64%
    12:00 +7°C° 0 mm 6 m/s 742 mmHg 59%
    13:00 +8°C° 0 mm 6 m/s 742 mmHg 54%
    14:00 +7°C° 0 mm 6 m/s 742 mmHg 54%
    15:00 +7°C° 0 mm 5 m/s 742 mmHg 54%
    16:00 +7°C° 0 mm 5 m/s 742 mmHg 53%
    17:00 +6°C° 0 mm 4 m/s 742 mmHg 58%
    18:00 +5°C° 0 mm 4 m/s 743 mmHg 62%
    19:00 +4°C° 0 mm 3 m/s 743 mmHg 67%
    20:00 +4°C° 0 mm 3 m/s 743 mmHg 69%
    21:00 +4°C° 0 mm 3 m/s 743 mmHg 70%
    22:00 +4°C° 0 mm 3 m/s 743 mmHg 72%
    23:00 +3°C° 0 mm 3 m/s 743 mmHg 75%
    Arată mai mult